Lapse_Rate
6.4 7.3 7.6 7.2 6.7 6.6 6.2 6.0 6.0 6.5 6.6 6.3 6.7 6.4 6.0 6.3 6.2 5.8 5.2 5.2 5.2 6.9 7.0 6.3 5.7 5.0 5.4 5.5 5.7 4.5 6.5 6.5 6.5 6.5 6.5 6.1 6.5 5.7 5.4 5.7 4.8 5.1 4.6 4.6 2.5
6.9 6.6 7.5 7.6 7.2 7.0 6.7 6.2 6.3 6.3 6.6 6.2 6.6 6.4 6.2 6.2 6.0 6.1 5.6 7.0 7.3 7.6 6.4 6.1 5.8 5.5 4.8 5.8 5.2 6.1 6.5 6.5 6.5 6.5 6.5 6.2 5.9 5.8 6.0 5.3 5.1 5.2 5.4 3.2 1.6
6.9 7.1 6.8 7.7 7.3 6.9 7.2 6.5 6.4 6.3 6.4 6.3 6.0 6.5 6.2 6.3 6.3 6.4 7.1 7.3 7.7 8.0 6.4 6.1 5.8 6.1 6.2 6.0 5.7 6.2 6.5 6.5 6.4 6.3 5.9 6.2 6.1 6.5 6.3 6.5 4.7 5.4 4.4 4.0 2.5
7.2 6.7 6.6 7.0 7.2 7.5 7.2 7.1 6.6 6.5 6.5 6.3 6.1 5.9 6.0 6.0 6.5 6.3 8.0 8.1 7.9 7.4 7.3 6.3 6.0 5.7 6.4 6.5 5.7 6.5 6.1 6.2 6.4 6.3 5.9 6.5 5.9 5.9 5.8 5.3 5.0 4.1 5.1 4.2 4.6
7.2 7.2 6.8 6.8 7.1 7.2 7.8 7.3 7.2 6.9 6.6 6.7 6.6 6.3 6.3 6.7 6.1 6.5 7.0 6.6 7.0 6.6 7.5 7.4 6.0 5.9 6.5 6.4 6.3 6.5 6.5 6.1 6.0 5.6 5.6 5.7 6.1 6.1 5.7 5.3 4.8 4.4 4.4 3.6 3.2
7.4 7.2 7.2 6.7 6.8 7.0 7.4 7.6 7.5 7.2 6.8 6.8 7.0 7.0 6.6 6.4 5.9 6.0 6.1 6.3 6.2 7.2 6.3 6.8 7.3 5.7 6.1 6.3 6.5 6.4 6.4 6.2 6.1 6.0 5.9 6.4 6.3 5.8 5.9 5.4 4.5 4.3 4.2 3.7 2.9
6.2 7.3 7.3 6.9 6.6 6.7 7.2 7.5 7.3 7.1 7.0 7.0 7.2 7.1 6.2 5.5 6.4 5.4 6.2 6.3 6.7 6.8 5.6 5.5 6.1 6.4 6.4 6.5 6.3 6.2 6.5 6.5 6.2 5.9 6.4 6.0 6.5 6.5 6.2 5.0 5.2 4.0 4.0 3.6 3.0
6.4 6.1 7.0 7.3 6.8 6.6 6.9 7.4 7.2 6.6 7.0 7.0 7.3 6.6 5.3 6.4 5.7 5.9 5.8 6.6 6.7 7.0 7.2 6.1 6.2 6.3 7.2 6.6 6.5 6.5 6.5 6.5 6.5 6.5 6.1 5.9 6.5 6.5 5.5 4.0 5.4 5.1 3.4 2.9 3.3
7.8 5.8 6.4 7.3 7.1 6.2 6.5 7.0 7.0 6.7 6.9 7.1 6.2 6.3 5.3 6.9 5.9 5.7 6.5 6.9 6.3 6.9 7.0 8.4 7.0 6.6 6.7 6.5 6.5 6.5 6.5 6.5 6.5 6.4 6.5 6.5 6.5 6.5 5.5 4.9 4.8 3.7 2.8 2.8 2.4
8.3 6.6 5.8 6.4 7.7 6.6 6.5 6.8 6.9 6.8 6.6 7.5 7.5 6.5 5.6 6.1 6.3 6.3 5.7 7.1 6.8 6.6 7.0 6.8 6.5 6.5 6.5 6.5 6.5 6.5 6.5 6.5 6.5 6.5 6.5 6.5 6.5 6.5 5.5 5.1 5.7 4.4 3.3 3.0 2.9
8.7 7.4 5.6 5.7 7.2 6.7 6.8 5.9 6.1 6.3 5.9 6.9 6.6 6.4 6.8 7.0 7.2 6.3 6.1 6.4 6.5 6.0 6.5 6.4 6.5 6.5 6.5 6.5 6.5 6.5 6.5 6.5 6.5 6.5 6.5 6.5 6.5 6.5 6.0 5.4 5.9 5.9 5.9 4.1 3.1
9.0 7.9 6.0 5.5 6.3 6.5 5.7 5.8 5.6 5.8 6.2 5.9 6.1 6.5 7.1 7.3 6.9 6.7 6.8 6.2 6.3 6.5 6.5 6.5 6.5 6.5 6.5 6.5 6.5 6.5 6.5 6.5 6.5 6.5 6.5 6.5 6.5 6.5 6.5 6.4 6.2 5.7 5.7 4.9 4.0
8.0 7.8 6.4 4.3 5.6 5.7 6.3 5.1 4.5 5.3 6.0 6.1 6.1 7.1 6.1 7.0 7.0 6.5 6.6 5.8 6.5 6.5 6.5 6.5 6.5 6.5 6.5 6.5 6.5 6.5 6.5 6.5 6.5 6.5 6.5 6.5 6.5 6.5 6.5 6.3 6.3 6.4 6.2 5.8 5.3
7.4 7.9 6.2 5.1 5.8 6.0 6.6 6.3 4.6 4.7 6.5 6.5 6.6 6.4 6.7 7.2 6.6 7.4 7.0 6.1 6.5 6.5 6.5 6.5 6.5 6.5 6.5 6.5 6.5 6.5 6.5 6.5 6.5 6.5 6.5 6.5 6.5 6.5 6.5 6.5 6.5 6.1 5.8 5.6 4.4
7.1 7.2 6.0 6.1 5.5 5.9 4.9 5.3 4.6 3.8 6.5 6.5 6.5 7.8 7.4 6.5 6.7 6.7 7.3 7.2 6.5 6.5 6.5 6.5 6.5 6.5 6.5 6.5 6.5 6.5 6.5 6.5 6.5 6.5 6.5 6.5 6.5 6.5 6.5 6.5 6.5 6.5 4.1 4.4 4.3
7.1 7.4 6.6 6.4 5.6 5.2 4.8 5.9 5.4 6.5 6.5 6.5 6.6 6.5 6.5 6.7 6.8 6.8 7.1 7.3 6.9 6.5 6.5 6.5 6.3 6.5 6.5 6.5 6.5 6.5 6.5 6.5 6.5 6.5 6.5 6.5 6.5 6.5 6.5 6.5 6.5 6.7 4.4 3.6 2.8
7.2 7.1 5.8 6.9 6.1 5.2 6.3 5.9 6.5 6.5 6.5 6.5 6.5 6.5 6.5 6.5 6.5 6.5 6.5 6.5 6.5 6.5 6.5 6.5 6.5 6.5 6.6 6.5 6.5 6.5 6.5 6.5 6.5 6.5 6.5 6.5 6.5 6.5 6.5 6.5 6.5 6.5 4.5 3.1 1.2
6.8 7.3 7.0 7.7 5.3 6.4 6.9 6.1 6.5 6.5 6.5 6.5 6.5 6.5 6.5 6.5 6.5 6.5 6.5 6.5 6.5 6.5 6.5 6.5 6.5 6.5 6.5 6.5 6.5 6.5 6.5 6.5 6.5 6.5 6.5 6.5 6.5 6.5 6.5 6.4 6.2 6.2 4.4 3.6 1.4
6.7 5.7 6.0 6.6 5.9 6.9 6.6 6.5 6.5 6.5 6.5 6.5 6.5 6.5 6.5 6.5 6.5 6.5 6.5 6.5 6.5 6.5 6.5 6.5 6.5 6.5 6.5 6.5 6.5 6.5 6.5 6.5 6.5 6.5 6.5 6.5 6.5 6.5 6.5 6.5 6.5 6.2 5.0 3.4 1.8
6.4 5.8 4.9 5.9 6.1 7.2 6.4 6.5 6.5 6.5 6.5 6.5 6.5 6.5 6.5 6.5 6.5 6.5 6.5 6.5 6.5 6.5 6.4 6.5 6.5 6.5 6.5 6.4 6.5 6.5 6.5 6.5 6.5 6.5 6.5 6.5 6.5 6.5 6.5 6.5 6.5 6.5 6.3 3.6 1.8
6.6 6.2 6.2 5.4 6.8 6.7 6.5 6.5 6.5 6.4 6.2 6.5 6.5 6.5 6.5 6.5 6.5 6.5 6.5 6.5 6.5 6.5 6.5 6.5 6.5 6.5 6.5 6.5 6.5 6.5 6.5 6.5 6.5 6.5 6.5 6.5 6.5 6.5 6.5 6.5 6.5 6.5 6.1 4.3 1.9
6.4 6.5 6.2 7.0 6.5 6.5 6.5 6.5 6.6 6.5 6.5 6.5 6.5 6.5 6.5 6.5 6.5 6.5 6.5 6.5 6.0 6.4 6.5 6.5 6.5 6.5 6.5 6.5 6.5 6.5 6.5 6.5 6.5 6.5 6.5 6.5 6.5 6.5 6.5 6.5 6.5 6.5 5.5 4.9 3.5
6.6 6.3 6.2 7.4 6.5 6.5 6.5 6.5 6.5 6.5 6.5 6.5 6.5 6.5 6.5 6.5 6.5 6.5 6.5 6.4 6.1 6.5 6.5 6.5 6.5 6.5 6.5 6.5 6.5 6.5 6.5 6.5 6.5 6.5 6.5 6.5 6.5 6.5 6.5 6.5 5.9 6.1 5.4 5.1 4.6
6.6 6.5 6.6 6.8 6.8 6.5 6.5 6.5 6.5 6.4 6.5 6.5 6.5 6.5 6.5 6.5 6.5 6.5 6.5 6.5 6.4 6.5 6.8 6.6 6.5 6.5 6.5 6.5 6.5 6.5 6.5 6.5 6.5 6.5 6.5 6.5 6.5 6.5 6.5 6.5 6.6 6.3 5.8 5.9 5.3
6.6 6.6 6.9 6.5 6.5 6.5 6.5 6.5 6.5 6.5 6.5 6.6 6.5 6.5 6.5 6.5 6.5 6.5 6.5 6.5 6.5 6.7 6.5 6.5 6.5 6.5 6.5 6.5 6.5 6.5 6.5 6.5 6.5 6.5 6.5 6.5 6.5 6.5 6.5 6.5 6.5 5.9 5.4 6.3 6.4
6.7 6.6 6.4 6.4 6.7 6.5 6.5 6.5 6.5 6.5 6.5 6.5 6.5 6.5 6.5 6.5 6.5 6.5 6.5 6.5 6.5 6.5 6.5 6.5 6.5 6.5 6.5 6.5 6.5 6.5 6.5 6.5 6.5 6.5 6.5 6.5 6.5 6.5 6.5 6.5 6.5 6.4 5.7 6.7 6.7
6.7 6.0 6.6 6.6 6.5 6.5 6.5 6.5 6.5 6.5 6.5 6.6 6.5 6.5 6.5 6.5 6.7 6.6 6.0 6.3 6.5 6.5 6.5 6.5 6.5 6.5 6.5 6.5 6.5 6.5 6.5 6.5 6.5 6.5 6.5 6.5 6.5 6.5 6.5 6.5 6.4 5.9 6.3 6.4 6.1
Wind_Speed
16 11 10 12 12 11 9 9 9 10 11 11 10 9 4 8 6 4 5 8 6 11 2 2 4 4 3 2 1 3 2 5 6 7 5 1 1 3 4 3 5 3 2 4 3
17 15 11 12 12 11 10 9 8 8 9 10 7 8 5 4 6 11 10 10 8 4 3 2 2 4 2 2 1 3 3 6 5 5 4 3 3 4 4 5 5 4 3 4 3
16 17 16 13 13 11 11 8 7 6 7 8 6 5 4 1 2 6 13 21 15 10 5 2 2 2 1 1 3 3 6 3 3 3 4 4 4 2 3 5 7 5 7 6 3
18 19 18 15 13 11 10 9 6 5 6 7 6 4 3 1 6 2 4 5 18 10 8 4 2 4 3 4 4 2 5 4 2 3 4 3 5 6 4 8 5 6 4 6 5
21 17 20 17 15 13 13 10 7 5 4 5 4 2 0 4 7 2 6 8 4 11 9 7 3 4 4 3 0 4 3 4 5 7 6 7 11 10 10 10 10 12 6 9 9
25 21 19 19 16 14 13 10 8 6 4 3 2 1 1 3 3 4 4 4 5 8 6 6 5 4 2 3 3 2 2 5 6 5 5 8 12 5 10 5 9 9 10 10 9
28 24 20 22 18 16 13 10 9 8 7 4 1 1 1 10 2 3 5 2 1 5 4 4 5 3 2 3 2 3 4 6 6 6 7 5 15 17 14 11 15 12 9 11 11
26 27 23 23 21 17 14 11 9 4 8 5 2 1 6 2 2 4 1 1 2 2 3 5 5 4 2 3 3 3 2 3 5 4 6 10 20 3 6 13 17 17 11 11 14
29 25 24 22 24 19 15 13 7 3 7 7 2 3 7 4 2 3 5 3 3 2 1 2 4 3 3 2 3 5 5 5 6 2 4 11 4 2 3 6 8 9 9 9 10
31 22 26 21 23 21 16 12 7 4 1 2 1 2 3 2 2 4 2 5 3 5 3 3 3 3 3 4 6 4 4 4 5 3 5 9 15 13 10 11 13 9 9 9 9
29 24 22 23 21 24 13 6 4 0 4 6 5 2 1 1 2 3 3 5 3 4 5 2 4 8 10 8 6 2 3 7 4 8 9 14 19 17 10 10 13 15 14 11 10
26 27 20 24 19 27 12 7 5 5 3 14 6 7 1 3 2 2 6 5 4 5 4 1 10 7 3 5 7 8 10 13 9 10 11 13 25 18 15 16 17 12 15 10 10
29 28 18 23 17 18 15 8 8 6 1 4 8 7 3 4 3 5 8 4 4 6 7 11 3 7 9 5 5 6 10 7 11 7 12 13 28 19 22 25 21 21 20 18 14
34 26 18 19 12 15 10 6 8 5 4 4 5 5 5 4 5 8 11 6 3 10 11 9 11 9 5 5 8 14 7 12 11 5 6 4 10 9 8 11 14 19 15 16 13
29 24 13 15 3 14 12 13 7 5 2 3 4 2 7 11 4 2 4 4 8 8 6 5 5 6 15 18 7 6 6 9 10 7 8 10 6 5 4 8 9 10 11 15 15
27 18 6 9 5 12 22 13 5 5 6 6 3 5 8 6 2 3 7 3 2 9 12 12 4 4 5 6 12 1 6 6 5 8 10 12 10 17 7 11 9 11 13 13 13
14 8 0 7 4 21 18 7 5 4 1 6 5 6 6 6 5 5 5 10 6 4 5 2 12 3 2 4 6 10 3 3 5 6 8 9 12 21 7 6 10 12 10 10 9
12 10 8 6 17 22 12 5 4 6 5 5 6 8 6 8 4 7 4 8 10 4 1 4 5 12 12 13 7 12 11 5 4 4 4 5 7 6 13 18 19 19 11 7 7
18 1 2 4 17 15 13 3 7 6 6 10 12 6 6 5 4 7 9 8 8 14 7 5 6 1 8 5 7 5 11 14 7 7 4 4 8 11 9 11 11 14 11 10 8
4 2 3 3 14 10 7 7 4 3 6 6 5 5 6 8 8 8 6 4 7 11 6 2 5 4 3 5 11 9 3 3 5 4 5 6 10 11 13 8 9 13 10 10 8
2 2 2 12 8 6 5 4 4 4 5 4 4 4 3 5 7 6 4 4 7 5 15 4 4 2 4 8 9 6 8 7 1 4 4 3 6 7 7 4 15 17 14 11 12
2 1 1 14 6 4 4 5 4 5 2 2 3 2 7 8 7 4 7 6 7 8 10 10 3 6 12 4 13 13 11 19 8 6 5 4 14 2 5 7 12 14 9 1 6
2 1 3 13 4 4 4 4 3 4 4 3 3 4 4 6 4 8 5 6 9 11 11 10 5 4 5 2 8 9 16 19 19 1 13 8 5 7 7 7 8 7 6 4 7
2 3 2 6 1 7 9 5 3 2 4 1 2 4 4 7 6 2 4 4 13 11 12 13 4 9 11 11 3 6 12 13 14 10 18 18 15 11 13 10 10 3 2 3 7
1 2 2 4 2 9 8 7 6 4 3 5 4 7 5 5 5 7 8 9 5 11 9 7 8 11 21 23 16 13 14 18 21 20 11 12 18 13 12 13 12 3 6 7 8
0 2 2 5 7 10 7 6 13 6 7 4 8 6 9 5 7 4 5 6 4 3 8 5 8 6 19 19 20 19 17 18 22 23 26 20 23 7 12 14 15 16 9 10 10
2 5 2 10 8 9 8 4 7 7 5 5 11 11 9 11 15 15 8 8 6 4 9 4 3 3 10 6 7 5 20 19 19 20 17 16 24 12 15 16 9 13 10 11 11
Wind_Direction
254 242 257 268 276 280 281 292 298 300 299 306 323 339 325 234 214 165 234 226 200 240 23 341 49 356 73 81 124 135 116 221 219 171 236 346 7 335 303 325 329 287 190 290 64
250 249 233 255 263 269 278 281 291 297 301 303 313 328 318 287 219 234 231 236 249 165 79 77 51 9 79 144 180 165 185 228 197 191 261 294 340 353 339 345 318 322 285 357 131
255 243 241 235 251 255 267 272 278 293 296 298 303 329 333 350 294 246 237 236 235 226 117 94 100 85 176 126 195 179 231 238 255 269 284 273 295 230 272 284 225 265 319 340 302
275 244 235 231 236 247 251 258 258 275 285 291 310 336 339 15 213 326 351 275 227 180 133 107 81 120 160 209 207 206 243 223 283 338 318 280 321 311 252 244 247 277 274 307 292
273 258 235 224 227 232 240 237 236 246 257 286 312 306 36 218 248 310 8 350 267 174 180 169 136 153 191 201 51 201 240 274 282 298 275 278 263 259 253 263 278 289 288 269 268
286 271 243 222 214 222 232 222 233 228 238 272 303 87 133 231 253 332 271 12 76 152 155 156 190 206 223 230 168 209 232 265 268 263 268 265 266 242 242 225 271 265 273 270 251
330 281 263 218 208 212 223 210 227 210 211 233 219 108 252 242 60 23 20 94 69 128 152 184 152 149 153 254 229 230 314 301 228 225 246 252 263 238 252 231 248 247 251 266 262
325 323 276 225 203 202 210 208 223 231 200 195 172 95 245 246 331 282 114 354 129 131 112 149 161 187 190 313 325 270 184 313 311 227 249 175 262 315 244 223 230 243 236 244 257
317 320 299 269 204 186 195 200 198 167 192 175 113 165 259 303 167 216 159 160 120 111 70 133 132 194 171 154 301 201 242 245 302 277 259 205 310 283 323 318 257 252 245 242 250
313 316 317 275 217 180 180 185 160 118 177 147 311 282 244 238 179 128 190 134 122 119 95 148 177 187 188 179 228 209 232 221 233 308 351 290 275 278 288 299 281 261 255 246 243
312 313 309 304 227 173 144 122 103 335 232 209 194 229 166 244 119 89 145 101 83 92 169 161 207 210 204 214 238 199 231 257 288 295 315 280 276 275 269 265 266 271 271 262 249
313 310 299 307 239 166 154 159 183 170 220 239 256 254 298 20 106 96 134 133 142 184 120 210 243 232 228 212 237 245 265 270 276 249 260 280 276 279 267 259 257 244 262 252 252
313 308 297 310 238 150 176 165 140 136 100 263 215 223 177 154 241 193 158 128 150 162 192 219 217 201 194 193 218 225 238 259 257 295 273 286 282 268 259 246 244 243 240 247 241
306 291 288 296 246 155 162 176 133 107 59 242 197 242 168 129 282 192 176 140 176 206 217 247 241 228 186 211 197 260 208 238 251 249 256 147 288 265 290 275 237 247 237 235 221
297 284 278 260 202 160 151 148 118 60 17 149 152 359 159 166 142 51 173 189 184 183 174 222 186 217 229 234 181 248 192 212 228 236 273 235 273 300 237 276 264 250 231 227 218
296 275 264 313 246 140 132 131 82 62 251 163 118 168 162 191 155 110 178 220 19 223 233 240 183 216 215 232 198 159 228 244 244 236 247 228 207 275 233 241 234 239 234 227 225
303 249 151 310 226 143 136 134 96 167 130 173 170 173 187 165 190 168 182 186 191 205 218 217 233 212 238 196 193 201 215 246 223 211 245 172 211 242 267 270 256 254 250 242 225
305 291 164 269 170 146 146 88 132 173 182 149 122 145 176 180 218 187 185 216 226 209 310 226 292 204 187 213 185 192 190 213 244 232 266 210 238 245 222 244 260 258 265 266 207
321 50 101 334 182 154 146 155 191 191 155 146 141 159 197 183 187 189 222 236 205 188 212 194 259 112 186 183 176 173 213 228 266 264 256 249 294 286 253 243 246 244 231 219 205
313 129 160 141 173 181 148 163 145 164 117 145 144 175 171 178 181 183 212 227 219 192 185 264 282 229 204 174 245 196 149 195 196 220 235 241 259 250 298 324 297 278 245 228 202
233 181 213 144 161 167 181 149 150 164 129 147 174 153 140 163 181 191 241 268 200 174 180 168 214 292 136 212 184 188 220 208 254 209 215 252 252 194 193 266 350 324 271 223 183
269 263 148 149 159 197 146 151 132 136 112 112 112 155 171 162 184 226 230 235 163 146 182 194 236 239 235 219 212 224 221 212 214 220 229 193 254 62 186 36 1 335 323 167 161
262 6 76 152 165 152 123 101 124 130 164 150 153 193 182 161 210 199 214 241 162 170 175 167 220 282 280 246 216 220 225 225 226 271 232 222 267 224 258 325 14 329 345 75 103
251 121 93 217 265 156 142 147 106 116 116 209 144 171 152 213 224 265 252 266 183 193 191 176 219 214 249 248 185 215 210 201 209 225 239 240 266 284 316 345 319 293 272 161 141
239 108 180 160 238 166 135 155 179 151 172 181 198 212 188 202 215 227 230 268 178 208 172 189 250 235 249 256 243 229 205 201 215 223 216 260 251 257 278 313 294 216 209 184 162
310 214 165 147 152 158 165 189 192 185 165 194 226 212 225 232 215 211 207 196 220 168 182 213 271 268 276 268 247 229 214 203 219 225 235 250 277 292 282 277 293 297 205 184 173
327 274 177 163 155 166 197 175 194 154 210 221 202 225 246 245 236 262 251 266 248 240 212 231 257 280 283 336 312 234 228 221 228 225 214 217 239 272 286 288 264 258 199 180 166